Miscellaneous Local Product
Issued by NWS Hastings, NE

Home | Current Version | Previous Version | Graphics & Text | Print | Product List | Glossary On
Versions: 1 2 3 4 5 6 7 8 9 10 11 12 13 14 15 16 17 18 19 20 21 22 23 24 25 26 27 28 29 30 31 32 33 34 35 36 37 38 39 40 41 42 43 44 45 46 47 48 49 50
940
AXUS43 KGID 290602
MISGRI

GID CWA HOURLY WEATHER ROUNDUP
NATIONAL WEATHER SERVICE HASTINGS NE
100 AM CDT FRI JUL 29 2016

NOTE: "FAIR" INDICATES FEW OR NO CLOUDS BELOW 12,000 FEET WITH NO
SIGNIFICANT WEATHER AND/OR OBSTRUCTIONS TO VISIBILITY.

...SOUTH CENTRAL NEBRASKA...

CITY           SKY/WX    TMP DP  RH WIND       PRES   REMARKS
GRAND ISLAND   MOCLDY    68  65  90 N5        30.09S
HASTINGS       CLEAR     66  64  93 CALM      30.08F
ORD            CLOUDY    68  64  87 CALM      30.08F
YORK           CLOUDY    66  64  94 NW3       30.07F
AURORA         CLOUDY    66  65  97 NE3       30.07F
LEXINGTON      MOCLDY    66  62  89 NE8       30.12R
HOLDREGE       CLEAR     63  61  95 NE3       30.09F FOG
HEBRON         MOCLDY    67  64  90 CALM      30.05S

...NEBRASKA PANHANDLE...

CITY           SKY/WX    TMP DP  RH WIND       PRES   REMARKS
CHADRON        CLEAR     60  57  89 SW3       30.17R
ALLIANCE       CLEAR     60  57  89 N3        30.18R
SCOTTSBLUFF    CLEAR     63  60  90 NE6       30.17F
SIDNEY         PTCLDY    62  59  90 SW7       30.23R

...WESTERN AND NORTH CENTRAL NEBRASKA...

CITY           SKY/WX    TMP DP  RH WIND       PRES   REMARKS
VALENTINE      PTCLDY    59  58  96 CALM      30.13S
AINSWORTH      CLEAR     60  60 100 CALM      30.12F FOG
ONEILL         CLOUDY    66  64  93 N5        30.10F
BROKEN BOW     CLOUDY    62  62 100 W3        30.12R
IMPERIAL       CLEAR     63  60  90 CALM      30.17R
NORTH PLATTE   CLEAR     60  58  92 CALM      30.12S
MCCOOK         CLEAR     63  60  90 CALM      30.11S

...EASTERN NEBRASKA...

CITY           SKY/WX    TMP DP  RH WIND       PRES   REMARKS
NORFOLK        CLOUDY    68  62  81 E3        30.07F
SO SIOUX CITY  CLEAR     69  62  78 N6        30.05F
TEKAMAH        CLOUDY    67  63  87 NW7       30.04F
COLUMBUS       CLOUDY    68  61  77 CALM      30.07S
ALBION         CLOUDY    68  63  85 NE3       30.08F
OMAHA EPPLEY   CLOUDY    70  65  84 NW5       30.02F
MILLARD        CLOUDY    74  63  69 CALM      30.03S
LINCOLN        CLOUDY    72  64  76 N3        30.04F
NEBRASKA CITY  CLOUDY    70  65  84 N5        30.02F
BEATRICE       PTCLDY    68  63  84 NE5       30.03S
FALLS CITY     CLOUDY    71  67  87 SE3       30.00S

...NORTHERN KANSAS...

CITY           SKY/WX    TMP DP  RH WIND       PRES   REMARKS
GOODLAND       CLOUDY    64  61  90 SE3       30.17R
HILL CITY      CLOUDY    68  67  96 S5        30.10R
NORTON         CLEAR     68  64  88 NE7       30.08F
SMITH CENTER   CLOUDY    66  64  94 NE7       30.07S
BELOIT         PTCLDY    68  66  94 CALM      30.03F
HAYS           CLOUDY    70  59  68 CALM      30.06F
RUSSELL        CLOUDY    68  66  93 W5        30.05S
CONCORDIA      PTCLDY    68  66  93 SW8       30.04R
SALINA         MOCLDY    70  67  90 W5        30.05R
TOPEKA         CLOUDY    69  66  90 SW3       30.01R



USA.gov is the U.S. government's official web portal to all federal, state and local government web resources and services.